User: anonymous   Login
Location: Kitchener
(43.4500°N, 80.5000°W)
Time: 20:00:13
(UTC-04:00)
Language:

Cosmos 1939 Rocket - Orbit

View from above orbital plane
View from above orbital plane
View from above satellite
View from above satellite

Ground track
Ground track

The orbit data is extracted from the following two-line orbital elements,

1 19046U 88032B   17082.93531380 +.00000428 +00000-0 +36715-4 0  9991
2 19046 097.5438 132.2728 0036507 256.5554 103.1602 15.02179502559550
Epoch (UTC): 23 March 2017 22:26:51
Eccentricity: 0.0036507
inclination: 97.5438°
perigee height: 535 km
apogee height: 585 km
right ascension of ascending node: 132.2728°
argument of perigee: 256.5554°
revolutions per day: 15.02179502
mean anomaly at epoch: 103.1602°
orbit number at epoch: 55955

The dashed part of the orbit path shows where the satellite is in the earth's shadow,  

DLR